Flag for U.S.A. Weather past 2 weeks in Pasco, Washington, U.S.A.

Now
56 °F

Clear.


Feels Like: 55 °F
Forecast: 58 / 94 °F
Wind: 5 mph from North

Location: Tri-Cities Airport

Current Time: Aug 27, 2014 at 7:56:24 AM

Latest Report: Aug 27, 2014 at 6:53 AM


Visibility: 8 mi

Pressure: 29.98 "Hg

Humidity: 90%

Dew point: 53 °F

Location of PascoLocation

Historic Weather in Pasco — Graph

°F

Pasco temperature yesterday

Maximum temperature yesterday: 92 °F (at 3:53 PM)
Minimum temperature yesterday: 54 °F (at 5:53 AM)
Average temperature yesterday: 73 °F

Past Weeks' High & Low Weather Summary

 TemperatureHumidityPressure
High97 °F (Aug 12, 1:53 PM)100% (Aug 15, 4:53 AM)30.11 "Hg (Aug 15, 4:53 AM)
Low53 °F (Aug 25, 5:53 AM)14% (Aug 21, 7:53 PM)29.57 "Hg (Aug 19, 5:53 PM)
Average74 °F57%29.89 "Hg
* Reported Aug 12 5:53 AM — Aug 27 5:53 AM, Pasco, Weather by CustomWeather, © 2014

Note: Actual official high and low records may vary slightly from our data, if they occured in-between our weather recording intervals... More about our weather records

Advertising

Pasco weather history for previous 24 hours

 ConditionsComfort  
Time TempWeatherWind HumidityBarometerVisibility
5:53 AM
Aug 27
57 °FClear.3 mph83%29.96 "Hg10 mi
4:53 AM56 °FClear.No wind93%29.95 "Hg10 mi
3:53 AM57 °FClear.No wind90%29.94 "Hg10 mi
2:53 AM57 °FClear.3 mph90%29.94 "Hg10 mi
1:53 AM61 °FClear.No wind78%29.94 "Hg10 mi
12:53 AM65 °FClear.3 mph63%29.93 "Hg10 mi
11:53 PM
Aug 26
64 °FClear.No wind78%29.93 "Hg10 mi
10:53 PM63 °FClear.5 mph87%29.93 "Hg10 mi
9:53 PM67 °FClear.5 mph76%29.93 "Hg9 mi
8:53 PM76 °FClear.3 mph45%29.92 "Hg10 mi
7:53 PM83 °FSunny.5 mph30%29.90 "Hg10 mi
6:53 PM90 °FSunny.5 mph20%29.90 "Hg10 mi
5:53 PM91 °FSunny.3 mph22%29.91 "Hg10 mi
4:53 PM92 °FSunny.8 mph23%29.93 "Hg10 mi
3:53 PM92 °FSunny.5 mph20%29.95 "Hg10 mi
2:53 PM91 °FSunny.5 mph20%29.96 "Hg10 mi
1:53 PM89 °FSunny.3 mph22%29.99 "Hg10 mi
12:53 PM87 °FSunny.No wind26%30.00 "Hg10 mi
11:53 AM83 °FSunny.3 mph34%30.02 "Hg10 mi
10:53 AM80 °FSunny.No wind38%30.03 "Hg10 mi
9:53 AM75 °FSunny.3 mph43%30.04 "Hg10 mi
8:53 AM70 °FSunny.3 mph55%30.04 "Hg10 mi
7:53 AM64 °FSunny.No wind68%30.03 "Hg10 mi
Weather by CustomWeather, © 2014

See weather overviewHow to use our weather pages